Thomson, GA

7:51 AM EST on December 09, 2016 (GMT -0500)
Thomson-McDuffie County

Weather History for KHQU - October, 2012

Change the Weather History Date:

Friday, October 26, 2012

  Actual Average (KDNL) Record (KDNL)
Temperature  
Mean Temperature 66 °F -  
Max Temperature 79 °F 71 °F 88 °F (2014)
Min Temperature 52 °F 52 °F 37 °F (2013)
Growing Degree Days 16 (Base 50)    
Moisture  
Dew Point 57 °F    
Average Humidity 77    
Maximum Humidity 100    
Minimum Humidity 44    
Precipitation  
Precipitation 0.00 in - - ()
Sea Level Pressure  
Sea Level Pressure 30.02 in    
Wind  
Wind Speed 4 mph (NE)    
Max Wind Speed 16 mph    
Max Gust Speed 22 mph    
Visibility 8 miles    
Events      
Averages and records for this station are not official NWS values.
T = Trace of Precipitation, MM = Missing Value Source: NWS Daily Summary

Daily Weather History Graph

Daily Weather History Graph

Search for Another Location

Airport or City:

Trip Planner

Search our weather history database for the weather conditions in past years. The results will help you decide how hot, cold, wet, or windy it might be!

Date:

Astronomy

Oct. 26, 2012 Rise Set
Actual Time 7:44 AM EDT 6:43 PM EDT
Civil Twilight 7:18 AM EDT 7:08 PM EDT
Nautical Twilight 6:49 AM EDT 7:37 PM EDT
Astronomical Twilight 6:20 AM EDT 8:06 PM EDT
Moon 4:52 PM EDT (10/26) 4:46 AM EDT (10/26)
Length of Visible Light 11h 50m
Length of Day
10h 59m
Waxing Gibbous, 91% of the Moon is Illuminated
Oct 26
Waxing Gibbous
Oct 29
Full
Nov 6
Last Quarter
Nov 13
New
Nov 20
First Quarter

Hourly Weather History & Observations

Time (EDT) Temp. Dew Point Humidity Pressure Visibility Wind Dir Wind Speed Gust Speed Precip Events Conditions
12:15 AM 62.4 °F 61.0 °F 95% 30.09 in 10.0 mi East 3.5 mph - N/A   Clear
12:35 AM 62.4 °F 61.7 °F 97% 30.08 in 10.0 mi East 4.6 mph - N/A   Clear
12:55 AM 61.0 °F 60.6 °F 99% 30.08 in 10.0 mi East 3.5 mph - N/A   Clear
1:35 AM 57.7 °F 57.7 °F 100% 30.08 in 10.0 mi Calm Calm - N/A   Clear
1:55 AM 57.6 °F 57.6 °F 100% 30.07 in 10.0 mi ENE 3.5 mph - N/A   Clear
2:15 AM 57.2 °F 57.2 °F 100% 30.07 in 10.0 mi Calm Calm - N/A   Clear
2:35 AM 56.5 °F 56.5 °F 100% 30.06 in 7.0 mi Calm Calm - N/A   Clear
2:55 AM 55.6 °F 55.6 °F 100% 30.06 in 7.0 mi Calm Calm - N/A   Clear
3:15 AM 55.4 °F 55.4 °F 100% 30.06 in 7.0 mi Calm Calm - N/A   Clear
3:35 AM 55.0 °F 55.0 °F 100% 30.06 in 10.0 mi Calm Calm - N/A   Clear
3:55 AM 54.3 °F 54.3 °F 100% 30.06 in 7.0 mi WNW 3.5 mph - N/A   Clear
4:35 AM 54.5 °F 54.5 °F 100% 30.05 in 5.0 mi Calm Calm - N/A   Clear
4:55 AM 53.4 °F 53.4 °F 100% 30.06 in 5.0 mi Calm Calm - N/A   Clear
5:15 AM 54.7 °F 54.7 °F 100% 30.06 in 7.0 mi Calm Calm - N/A   Clear
5:35 AM 53.6 °F 53.6 °F 100% 30.07 in 7.0 mi Calm Calm - N/A   Clear
5:55 AM 53.8 °F 53.8 °F 100% 30.07 in 5.0 mi Calm Calm - N/A   Clear
6:15 AM 53.2 °F 53.2 °F 100% 30.07 in 5.0 mi Calm Calm - N/A   Clear
6:35 AM 53.4 °F 53.4 °F 100% 30.07 in 4.0 mi Calm Calm - N/A   Clear
6:55 AM 52.7 °F 52.7 °F 100% 30.07 in 5.0 mi Calm Calm - N/A   Clear
7:15 AM 53.1 °F 53.1 °F 100% 30.06 in 2.5 mi Calm Calm - N/A   Clear
7:35 AM 53.6 °F 53.6 °F 100% 30.06 in 0.8 mi Calm Calm - N/A   Unknown
7:55 AM 53.6 °F 53.6 °F 100% 30.07 in 0.2 mi Calm Calm - N/A   Overcast
8:15 AM 53.6 °F 53.6 °F 100% 30.08 in 0.2 mi Calm Calm - N/A   Overcast
8:35 AM 54.0 °F 54.0 °F 100% 30.08 in 1.2 mi Calm Calm - N/A   Overcast
8:55 AM 56.7 °F 56.7 °F 100% 30.09 in 2.0 mi Calm Calm - N/A   Overcast
9:15 AM 60.3 °F 60.3 °F 100% 30.09 in 4.0 mi Calm Calm - N/A   Mostly Cloudy
9:35 AM 62.2 °F 62.2 °F 100% 30.10 in 10.0 mi NNE 5.8 mph - N/A   Scattered Clouds
9:55 AM 64.6 °F 63.3 °F 96% 30.10 in 10.0 mi NE 6.9 mph - N/A   Clear
10:15 AM 67.3 °F 63.7 °F 88% 30.10 in 10.0 mi NNE 6.9 mph - N/A   Clear
10:35 AM 68.5 °F 63.0 °F 82% 30.10 in 10.0 mi NE 8.1 mph - N/A   Clear
10:55 AM 70.7 °F 62.8 °F 76% 30.09 in 10.0 mi North - - N/A   Clear
11:15 AM 72.5 °F 62.2 °F 70% 30.09 in 10.0 mi NNE 8.1 mph 16.1 mph N/A   Clear
11:35 AM 73.9 °F 61.3 °F 65% 30.08 in 10.0 mi ENE 16.1 mph 20.7 mph N/A   Clear
11:55 AM 75.0 °F 61.2 °F 62% 30.07 in 10.0 mi NE 6.9 mph 18.4 mph N/A   Clear
12:15 PM 75.4 °F 61.0 °F 61% 30.06 in 10.0 mi NNE 13.8 mph 17.3 mph N/A   Clear
12:35 PM 76.5 °F 61.0 °F 59% 30.06 in 10.0 mi ENE 12.7 mph 21.9 mph N/A   Clear
12:55 PM 76.6 °F 59.5 °F 55% 30.05 in 10.0 mi NE 11.5 mph 18.4 mph N/A   Clear
1:15 PM 77.0 °F 59.4 °F 54% 30.04 in 10.0 mi NE 11.5 mph 18.4 mph N/A   Clear
1:35 PM 77.4 °F 58.5 °F 52% 30.04 in 10.0 mi NNE 11.5 mph 20.7 mph N/A   Clear
1:55 PM 77.7 °F 58.3 °F 51% 30.01 in 10.0 mi ENE 13.8 mph 18.4 mph N/A   Clear
2:15 PM 78.6 °F 58.8 °F 50% 30.01 in 10.0 mi NE 11.5 mph - N/A   Clear
2:35 PM 79.2 °F 58.5 °F 49% 29.99 in 10.0 mi NNE 13.8 mph 18.4 mph N/A   Clear
2:55 PM 79.2 °F 58.6 °F 49% 29.99 in 10.0 mi NNE 13.8 mph 19.6 mph N/A   Clear
3:15 PM 79.3 °F 58.3 °F 48% 29.98 in 10.0 mi NE 10.4 mph - N/A   Clear
3:35 PM 79.0 °F 57.6 °F 48% 29.96 in 10.0 mi NNE 9.2 mph 18.4 mph N/A   Clear
3:55 PM 79.3 °F 57.4 °F 47% 29.96 in 10.0 mi North 10.4 mph - N/A   Clear
4:15 PM 78.8 °F 56.1 °F 46% 29.96 in 10.0 mi NNE 10.4 mph 17.3 mph N/A   Clear
4:35 PM 79.3 °F 55.6 °F 44% 29.95 in 10.0 mi NNE 9.2 mph - N/A   Clear
4:55 PM 78.8 °F 56.5 °F 46% 29.95 in 10.0 mi NNE 10.4 mph 17.3 mph N/A   Clear
5:15 PM 78.4 °F 56.7 °F 47% 29.94 in 10.0 mi NNE 8.1 mph - N/A   Clear
5:35 PM 78.1 °F 56.7 °F 48% 29.94 in 10.0 mi NNE 9.2 mph - N/A   Clear
5:55 PM 77.9 °F 56.3 °F 47% 29.94 in 10.0 mi NE 4.6 mph - N/A   Clear
6:15 PM 77.0 °F 55.4 °F 47% 29.94 in 10.0 mi NE 6.9 mph - N/A   Clear
6:35 PM 75.6 °F 55.8 °F 50% 29.94 in 10.0 mi NE 5.8 mph - N/A   Clear
6:55 PM 74.1 °F 55.9 °F 53% 29.95 in 10.0 mi NE 3.5 mph - N/A   Clear
7:15 PM 70.9 °F 56.3 °F 60% 29.95 in 10.0 mi NE 3.5 mph - N/A   Clear
7:35 PM 68.5 °F 57.2 °F 67% 29.95 in 10.0 mi NE 3.5 mph - N/A   Clear
7:55 PM 66.6 °F 57.2 °F 72% 29.95 in 10.0 mi NE 3.5 mph - N/A   Clear
8:15 PM 65.8 °F 57.0 °F 73% 29.95 in 10.0 mi NE 3.5 mph - N/A   Clear
8:35 PM 65.1 °F 57.0 °F 75% 29.95 in 10.0 mi Calm Calm - N/A   Clear
8:55 PM 63.9 °F 56.8 °F 78% 29.94 in 10.0 mi Calm Calm - N/A   Clear
9:15 PM 62.4 °F 56.5 °F 81% 29.95 in 10.0 mi ENE 3.5 mph - N/A   Clear
9:35 PM 62.4 °F 56.5 °F 81% 29.95 in 10.0 mi NE 3.5 mph - N/A   Clear
9:55 PM 62.1 °F 56.7 °F 82% 29.96 in 10.0 mi NNE 4.6 mph - N/A   Clear
10:15 PM 61.5 °F 56.5 °F 83% 29.96 in 10.0 mi NNE 5.8 mph - N/A   Clear
10:35 PM 65.5 °F 56.1 °F 72% 29.95 in 10.0 mi NE 5.8 mph - N/A   Clear
10:55 PM 65.3 °F 56.1 °F 72% 29.95 in 10.0 mi NNE 4.6 mph - N/A   Clear
11:35 PM 62.6 °F 56.3 °F 80% 29.95 in 10.0 mi NE 4.6 mph - N/A   Clear